Location: Gensac
(43.2177°N, 1.1313°E)
Time: 22:28:19
(UTC+00:00)

Meteor 2-2 Rocket - Pass Details

Date: 08 December 2025
Orbit: 852 x 927 km, 81.3° (Epoch: 21 January)

Event Time Altitude Azimuth Distance (km) Brightness Sun altitude
Rises 05:57:46 0° 347° (NNW) 3,444 7.1 -13.5°
Reaches altitude 10° 06:00:12 10° 346° (NNW) 2,510 6.3 -13.1°
Maximum altitude 06:05:52 73° 263° (W) 913 4.2 -12.2°
Drops below altitude 10° 06:11:37 10° 180° (S) 2,538 7.0 -11.2°
Sets 06:14:04 0° 178° (S) 3,484 7.7 -10.8°
